FW2569 Weather Reports


Display with metric or nautical units.
time (UTC)temp
F
wind
direction
speed
MPH
gust
MPH
rain 1hr
in
rain 24hr
in
rain mn
in
humidity
%
barometer
mb
20210619053100 72 226 0.0 0.0 0.00 0.00 0.00 89 1011.7
20210619051543 72 226 0.0 0.0 0.00 0.00 0.00 91 1011.7
20210619050220 73 226 0.0 0.0 0.00 0.00 0.00 89 1011.5
20210619044534 73 226 0.0 0.0 0.00 0.00 0.00 88 1011.6
20210619043134 73 66 0.0 1.0 0.00 0.00 0.00 87 1011.5
20210619041600 73 174 0.0 0.0 0.00 0.00 0.00 88 1011.4
20210619034517 74 130 0.0 0.0 0.00 0.00 0.00 87 1011.3
20210619033131 74 130 0.0 0.0 0.00 0.00 0.00 87 1011.2
20210619031623 75 129 0.0 0.0 0.00 0.00 0.00 87 1011.0
20210619024602 75 129 0.0 0.0 0.00 0.00 0.00 84 1010.7
20210619023008 76 129 0.0 0.0 0.00 0.00 0.00 81 1010.5
20210619021619 77 129 0.0 0.0 0.00 0.00 0.00 79 1010.5
20210619014618 79 129 0.0 0.0 0.00 0.00 0.00 74 1010.4
20210619013034 82 129 0.0 0.0 0.00 0.00 0.00 65 1010.3
20210619011558 87 129 0.0 0.0 0.00 0.00 0.00 61 1010.3
20210619010017 88 129 0.0 1.0 0.00 0.00 0.00 54 1010.3
20210619004803 89 136 0.0 3.0 0.00 0.00 0.00 50 1010.2
20210619004503 89 137 0.0 2.0 0.00 0.00 0.00 50 1010.2
20210619003124 90 137 0.0 4.0 0.00 0.00 0.00 48 1010.2
20210619001550 90 137 1.0 6.0 0.00 0.00 0.00 47 1010.1
20210618234650 91 146 1.0 4.0 0.00 0.00 0.00 50 1010.1
20210618233023 91 203 3.0 5.0 0.00 0.00 0.00 51 1010.0
20210618231503 91 174 3.0 7.0 0.00 0.00 0.00 48 1010.2
20210618230030 91 146 2.0 6.0 0.00 0.00 0.00 47 1010.2
20210618224628 91 128 3.0 7.0 0.00 0.00 0.00 47 1010.3
20210618223047 90 110 0.0 6.0 0.00 0.00 0.00 47 1010.3
20210618221511 90 69 2.0 8.0 0.00 0.00 0.00 48 1010.4
20210618220118 91 124 0.0 7.0 0.00 0.00 0.00 48 1010.5
20210618214543 91 165 1.0 6.0 0.00 0.00 0.00 46 1010.5
20210618213236 91 129 4.0 8.0 0.00 0.00 0.00 47 1010.7
20210618211542 92 150 3.0 7.0 0.00 0.00 0.00 47 1010.9
20210618210146 91 110 0.0 6.0 0.00 0.00 0.00 48 1011.0
20210618204539 90 127 3.0 10.0 0.00 0.00 0.00 49 1011.2
20210618203158 90 44 1.0 5.0 0.00 0.00 0.00 50 1011.3
20210618201636 90 139 2.0 10.0 0.00 0.00 0.00 48 1011.4
20210618194621 90 68 0.0 5.0 0.00 0.00 0.00 50 1011.7
20210618193026 89 67 2.0 10.0 0.00 0.00 0.00 55 1011.8
20210618191533 89 120 1.0 6.0 0.00 0.00 0.00 53 1011.9
20210618190133 89 150 1.0 11.0 0.00 0.00 0.00 53 1012.0
20210618184605 88 110 2.0 5.0 0.00 0.00 0.00 53 1012.1
20210618183212 90 70 2.0 7.0 0.00 0.00 0.00 54 1012.2
20210618181622 89 70 2.0 5.0 0.00 0.00 0.00 56 1012.3
20210618180016 89 224 0.0 7.0 0.00 0.00 0.00 55 1012.6
20210618174538 88 98 2.0 6.0 0.00 0.00 0.00 57 1012.7
20210618173028 89 153 2.0 7.0 0.00 0.00 0.00 59 1012.9
20210618171523 88 142 2.0 8.0 0.00 0.00 0.00 55 1013.0
20210618164557 88 143 4.0 8.0 0.00 0.00 0.00 53 1013.2
20210618163026 87 203 3.0 6.0 0.00 0.00 0.00 54 1013.4
20210618161522 87 105 1.0 8.0 0.00 0.00 0.00 53 1013.5
20210618160133 87 102 1.0 4.0 0.00 0.00 0.00 56 1013.5
20210618154515 87 123 2.0 6.0 0.00 0.00 0.00 54 1013.6
20210618153139 86 188 2.0 5.0 0.00 0.00 0.00 57 1013.6
20210618151610 86 165 0.0 5.0 0.00 0.00 0.00 64 1013.8
20210618144625 85 120 1.0 4.0 0.00 0.00 0.00 65 1013.8
20210618143012 83 103 0.0 1.0 0.00 0.00 0.00 71 1013.8
20210618141628 83 60 0.0 1.0 0.00 0.00 0.00 76 1013.7
20210618134620 80 124 0.0 1.0 0.00 0.00 0.00 83 1013.6
20210618133017 79 118 0.0 1.0 0.00 0.00 0.00 86 1013.5
20210618131559 78 157 0.0 0.0 0.00 0.00 0.00 87 1013.4
20210618124627 75 186 0.0 0.0 0.00 0.00 0.00 97 1013.3
20210618123107 73 186 0.0 0.0 0.00 0.00 0.00 97 1013.2
20210618121623 72 186 0.0 0.0 0.00 0.00 0.00 97 1013.3
20210618120109 71 186 0.0 0.0 0.00 0.00 0.00 97 1013.3
20210618114525 70 186 0.0 0.0 0.00 0.00 0.00 98 1013.3
20210618113029 69 186 0.0 0.0 0.00 0.00 0.00 97 1013.3
20210618111648 69 186 0.0 0.0 0.00 0.00 0.00 97 1013.3
20210618111502 69 186 0.0 0.0 0.00 0.00 0.00 97 1013.3
20210618110112 70 186 0.0 0.0 0.00 0.00 0.00 97 1013.1
20210618104659 70 186 0.0 0.0 0.00 0.00 0.00 97 1013.1
20210618103134 70 186 0.0 0.0 0.00 0.00 0.00 97 1013.0
20210618101543 70 186 0.0 0.0 0.00 0.00 0.00 97 1012.9
20210618100143 70 186 0.0 0.0 0.00 0.00 0.00 97 1012.9
20210618094518 71 186 0.0 0.0 0.00 0.00 0.00 97 1013.0
20210618093151 71 186 0.0 0.0 0.00 0.00 0.00 96 1013.0
20210618091554 71 186 0.0 0.0 0.00 0.00 0.00 96 1013.0
20210618084531 71 186 0.0 0.0 0.00 0.00 0.00 96 1013.0
20210618083003 72 186 0.0 0.0 0.00 0.00 0.00 95 1012.9
20210618081607 72 186 0.0 0.0 0.00 0.00 0.00 95 1013.0
20210618080003 73 186 0.0 0.0 0.00 0.00 0.00 95 1013.1
20210618074549 73 186 0.0 0.0 0.00 0.00 0.00 94 1013.2
20210618073037 74 186 0.0 0.0 0.00 0.00 0.00 93 1013.1
20210618071651 74 186 0.0 0.0 0.00 0.00 0.00 94 1013.0
20210618070021 74 186 0.0 0.0 0.00 0.00 0.00 95 1013.1
20210618064648 74 187 0.0 0.0 0.00 0.00 0.00 95 1013.2
20210618063041 75 195 0.0 0.0 0.00 0.00 0.00 95 1013.3
20210618061546 75 199 0.0 0.0 0.00 0.00 0.00 95 1013.3
20210618060132 75 297 0.0 0.0 0.00 0.00 0.00 95 1013.4
20210618054717 75 297 0.0 0.0 0.00 0.00 0.00 95 1013.3
20210618054510 75 297 0.0 0.0 0.00 0.00 0.00 95 1013.3